sat.trackr.live / text

‹ back to catalog

KL-ALPHA B

NORAD 44786 · 2019-077B

PAYLOAD ACTIVE UNKNOWN

§ Identity

Operator
Country
GER
Launch date
2019-11-17
Launch site
JSC
Launch vehicle
Mass (kg)
RCS (m²)

External: N2YO · Heavens-Above · Gunter

§ Orbital elements

Epoch: 2026-09-20T04:04:17.495616Z

Period
106.19 min
Inclination
88.9184°
Eccentricity
0.0024337
Mean motion
13.56009717 rev/d
Perigee alt
1,032.2 km
Apogee alt
1,068.3 km
Semi-major
7,428.4 km
B*
1.0798e-4
RAAN
209.6508°
Arg perigee
231.5615°
Mean anomaly
128.3355°
Rev number
33,805

§ Raw data

KL-ALPHA B1 44786U 19077B   26263.16964694  .00000088  00000+0  10798-3 0  99902 44786  88.9184 209.6508 0024337 231.5615 128.3355 13.56009717338056

JSON: /api/v1/satellites/44786 · /tle

For live sub-satellite position, see the globe view (requires WebGL).

§ Visibility from observer

Set your observer location to see the next 7 days of passes ≥ 10°. The values pass through the URL so the page stays shareable.

No JS? Fill the form by hand. The geolocation button needs JavaScript.